Flag for Canada Weather past 2 weeks in Guelph, Ontario, Canada

Now
45 °F

Sunny.


Feels Like: 40 °F
Forecast: 34 / 53 °F
Wind: 9 mph from Northwest

Location: Waterloo Well


UV Index: 5 (Moderate)

Visibility: 9 mi


Pressure: 30.27 "Hg

Humidity: 66%

Dew point: 34 °F

Location of GuelphLocation

Historic Weather in Guelph

°F

Guelph temperature yesterday

Maximum temperature yesterday: 50 °F (at 4:00 PM)
Minimum temperature yesterday: 25 °F (at 12:00 AM)
Average temperature yesterday: 37 °F

Past Weeks' High & Low Weather Summary

 TemperatureHumidityPressure
High70 °F (Apr 13, 6:00 PM)100% (Apr 4, 10:02 AM)30.54 "Hg (Apr 4, 10:02 AM)
Low18 °F (Apr 16, 4:00 AM)25% (Apr 11, 2:00 PM)29.34 "Hg (Apr 8, 4:01 AM)
Average40 °F73%29.94 "Hg
* Reported Apr 3 8:00 PM — Apr 18 8:00 PM, Guelph, Weather by CustomWeather, © 2014

Note: Actual official high and low records may vary slightly from our data, if they occured in-between our weather recording intervals... More about our weather records

Advertising

Historic Weather Conditions — Data for Previous 24 hours

 ConditionsComfort  
Time TempWeatherWind HumidityBarometerVisibility
8:00 PM
Apr 18
45 °FSunny.9 mph66%30.27 "Hg9 mi
7:00 PM48 °FPassing clouds.15 mph58%30.26 "Hg9 mi
6:00 PM50 °FBroken clouds.13 mph62%30.26 "Hg9 mi
5:00 PM48 °FScattered clouds.12 mph66%30.27 "Hg9 mi
4:00 PM45 °FMostly cloudy.9 mph81%30.28 "Hg9 mi
3:00 PM46 °FMostly cloudy.14 mph82%30.27 "Hg9 mi
2:00 PM50 °FLight rain. Mostly cloudy.6 mph76%30.26 "Hg9 mi
1:45 PM50 °FLight rain. Mostly cloudy.5 mph76%30.26 "Hg9 mi
1:00 PM48 °FLight rain. More clouds than sun.5 mph76%30.26 "Hg9 mi
12:51 PM50 °FLight rain. More clouds than sun.3 mph71%30.26 "Hg9 mi
12:00 PM50 °FPartly sunny.6 mph67%30.27 "Hg9 mi
11:00 AM48 °FSunny.6 mph58%30.28 "Hg9 mi
10:00 AM46 °FSunny.7 mph57%30.29 "Hg9 mi
9:00 AM45 °FPassing clouds.6 mph61%30.30 "Hg9 mi
8:00 AM39 °FSunny.2 mph81%30.29 "Hg9 mi
7:00 AM41 °FPassing clouds.2 mph70%30.29 "Hg9 mi
6:00 AM41 °FOvercast.2 mph66%30.25 "Hg9 mi
5:00 AM41 °FPassing clouds.7 mph66%30.26 "Hg9 mi
4:00 AM41 °FPartly cloudy.6 mph66%30.27 "Hg9 mi
3:00 AM37 °FPassing clouds.6 mph75%30.28 "Hg9 mi
2:00 AM37 °FClear.8 mph75%30.30 "Hg9 mi
1:00 AM37 °FPassing clouds.8 mph70%30.33 "Hg9 mi
12:00 AM37 °FOvercast.5 mph70%30.34 "Hg9 mi
11:00 PM
Apr 17
36 °FOvercast.5 mph75%30.35 "Hg9 mi
10:00 PM36 °FPassing clouds.6 mph70%30.37 "Hg9 mi
9:00 PM37 °FPassing clouds.8 mph70%30.37 "Hg9 mi
Weather by CustomWeather, © 2014

See weather overview